Deer Park, WA
on Saturday, December 22, 2012

Saturday
Previous Day Next Day
Daily Summary
 ActualAverageRecord
Temperature
Mean Temperature °F 24°F  
Max Temperature 39°F 31°F 42°F (2005)
Min Temperature 26°F 18°F -7°F (2008)
Degree Days
Heating Degree Days 32 41  
Month to date heating degree days 700 861  
Since 1 July heating degree days 2437 2864  
Cooling Degree Days 0 0  
Month to date cooling degree days 0 0  
Year to date cooling degree days 232 187  
Moisture
Dew Point 33°F   
Average Humidity 93    
Maximum Humidity 100    
Minimum Humidity 85    
Precipitation
Precipitation 0.19 in 0.10 in 0.75 in (2005)
Month to date precipitation 2.00  
Year to date precipitation 21.39  
Wind
Wind Speed 6 mph   
Max Wind Speed 16 mph   
Max Gust Speed 20 mph   
Visibility 9 miles   
Events Rain   

Key: T is trace of precipitation, MM is missing value
Source: NWS Daily Summary
Time(PST)TemperatureDew PointHumidity Pressure Visibility Wind DirectionWind SpeedGust SpeedPrecipitationEvents Conditions
12:12 AM 33.8°F 33.8°F 100% 29.77 in 10.0 miles NNE 5.8 mph - N/A   Overcast
12:37 AM 33.8°F 33.8°F 100% 29.77 in 10.0 miles Calm Calm - N/A   Overcast
12:53 AM 35.1°F 34.0°F 96% 29.82 in 10.0 miles Calm Calm - N/A   Overcast
1:53 AM 34.0°F 33.1°F 96% 29.82 in 10.0 miles NNE 3.5 mph - N/A   Overcast
2:53 AM 34.0°F 33.1°F 96% 29.79 in 10.0 miles NE 5.8 mph - N/A   Scattered Clouds
3:53 AM 33.1°F 33.1°F 100% 29.81 in 10.0 miles NNW 3.5 mph - N/A   Overcast
4:53 AM 32.0°F 30.9°F 96% 29.79 in 10.0 miles NE 4.6 mph - N/A   Partly Cloudy
5:53 AM 35.1°F 33.1°F 92% 29.77 in 10.0 miles NNE 8.1 mph - N/A   Overcast
6:53 AM 35.1°F 33.1°F 92% 29.75 in 10.0 miles NNE 6.9 mph - N/A   Overcast
7:53 AM 34.0°F 32.0°F 92% 29.74 in 10.0 miles NNE 6.9 mph - N/A   Mostly Cloudy
8:53 AM 36.0°F 32.0°F 86% 29.71 in 10.0 miles NNE 10.4 mph - 0.00 in   Overcast
9:53 AM 37.0°F 33.1°F 86% 29.70 in 10.0 miles NNE 10.4 mph - N/A   Clear
10:53 AM 37.0°F 33.1°F 86% 29.68 in 10.0 miles NE 10.4 mph - 0.00 in   Overcast
11:53 AM 37.9°F 33.1°F 83% 29.66 in 10.0 miles South 3.5 mph - N/A   Overcast
12:10 PM 39.2°F 33.8°F 81% 29.61 in 9.0 miles SE 6.9 mph - 0.01 in Rain Light Rain
12:53 PM 37.9°F 35.1°F 89% 29.64 in 7.0 miles East 3.5 mph - 0.03 in Rain Light Rain
1:35 PM 37.4°F 35.6°F 93% 29.61 in 5.0 miles SSE 9.2 mph - 0.06 in Rain Light Rain
1:53 PM 36.0°F 35.1°F 97% 29.65 in 3.0 miles SE 8.1 mph - 0.09 in Rain Rain
2:32 PM 37.4°F 35.6°F 93% 29.60 in 5.0 miles SE 6.9 mph - 0.02 in Rain Light Rain
2:53 PM 36.0°F 35.1°F 97% 29.65 in 6.0 miles SE 6.9 mph - 0.03 in Rain Light Rain
3:53 PM 36.0°F 35.1°F 97% 29.67 in 6.0 miles South 11.5 mph - 0.03 in Rain Light Rain
4:30 PM 35.6°F 33.8°F 93% 29.64 in 10.0 miles South 12.7 mph - 0.01 in   Overcast
4:42 PM 35.6°F 33.8°F 93% 29.65 in 10.0 miles South 12.7 mph - 0.01 in   Overcast
4:53 PM 36.0°F 34.0°F 93% 29.71 in 10.0 miles South 12.7 mph - 0.01 in   Overcast
5:00 PM 35.6°F 33.8°F 93% 29.66 in 10.0 miles SSE 11.5 mph - 0.00 in   Overcast
5:53 PM 35.1°F 34.0°F 96% 29.72 in 10.0 miles SSE 6.9 mph - 0.00 in   Overcast
6:13 PM 35.6°F 35.6°F 100% 29.67 in 10.0 miles Calm Calm - N/A   Overcast
6:23 PM 35.6°F 33.8°F 93% 29.68 in 10.0 miles Calm Calm - N/A   Overcast
6:53 PM 35.1°F 34.0°F 96% 29.73 in 10.0 miles SE 3.5 mph - N/A   Mostly Cloudy
7:00 PM 35.6°F 33.8°F 93% 29.68 in 10.0 miles SSE 3.5 mph - N/A   Mostly Cloudy
7:08 PM 35.6°F 33.8°F 93% 29.68 in 10.0 miles SSE 6.9 mph - N/A   Partly Cloudy
7:53 PM 33.1°F 33.1°F 100% 29.76 in 10.0 miles Calm Calm - N/A   Scattered Clouds
8:06 PM 33.8°F 32.0°F 93% 29.71 in 10.0 miles Calm Calm - N/A   Mostly Cloudy
8:18 PM 35.6°F 33.8°F 93% 29.72 in 10.0 miles Calm Calm - N/A   Scattered Clouds
8:53 PM 35.1°F 33.1°F 92% 29.78 in 10.0 miles SSE 5.8 mph - N/A   Mostly Cloudy
9:39 PM 32.0°F 30.2°F 93% 29.75 in 10.0 miles South 5.8 mph - N/A   Scattered Clouds
9:53 PM 30.9°F 30.0°F 96% 29.81 in 10.0 miles WSW 3.5 mph - N/A   Partly Cloudy
10:39 PM 28.4°F 26.6°F 93% 29.78 in 1.8 miles SE 4.6 mph - N/A   Clear
10:47 PM 28.4°F 26.6°F 93% 29.78 in 3.0 miles SSE 4.6 mph - N/A   Clear
10:53 PM 30.0°F 28.9°F 96% 29.83 in 10.0 miles SSE 4.6 mph - N/A   Clear
11:34 PM 26.6°F 26.6°F 100% 29.79 in 1.8 miles Calm Calm - N/A   Clear
11:48 PM 26.6°F 26.6°F 100% 29.80 in 4.0 miles Calm Calm - N/A   Clear
11:53 PM 28.0°F 27.0°F 96% 29.86 in 10.0 miles Calm Calm - N/A   Clear
Moon Phase
Dec. 22 Dec. 28 Jan. 04 Jan. 11 Jan. 18
Sunrise:07:37 AM (PST) Moon Rise:12:32 PM (PST)12/22
Sunset:03:59 PM (PST) Moon Set:02:13 AM (PST)12/22

Copyright © 2014 The Weather Underground, Inc.